CAPE
0 0 0 0 0 0 0 0 0 0 0 0 0 0 0 0 0 0 0 0 0 0 0 6 264 488 605 658 1028 1445 1482 1563 1623 1680 1764 1789 1761 1707 1690 1636 1514 1443 1410 1514 1579 1707 1774 2006 2169 2211 2243 2256 2266 2396 2454 2367 2246 2090 2055 1975 1833 1598 1433 1315 1262 1171 1328 1380 1326 1242 1210 1193 1203 1236 1246 1242 1240 1247 1238 1237 1224 1176 1108 1104 1299 1637 1598
1 0 2 4 0 0 0 0 0 0 0 0 0 0 0 0 0 0 0 0 0 0 0 0 67 492 575 669 880 1230 1444 1528 1593 1559 1509 1533 1542 1545 1534 1516 1546 1574 1479 1612 1852 1960 1950 2063 2158 2210 2373 2540 2547 2496 2436 2344 2130 1931 1915 1862 1672 1582 1574 1536 1464 1542 1513 1346 1258 1261 1252 1259 1299 1350 1367 1352 1355 1367 1347 1235 1418 1448 1436 1322 1323 1346 1304
2 2 2 12 8 0 0 0 0 0 0 41 445 633 158 0 0 0 0 0 0 0 0 0 233 544 693 886 995 1200 1381 1476 1564 1528 1417 1394 1450 1486 1548 1684 1743 1688 1628 1855 2007 2011 2168 2244 2347 2643 2719 2625 2561 2480 2337 2182 2010 1963 1903 1777 1641 1716 1774 1709 1650 1627 1494 1396 1319 1314 1386 1452 1340 1264 1208 1212 1165 1157 1182 1346 1483 1420 1502 1312 1337 1362 1353
0 2 0 6 13 15 2 6 174 17 77 512 660 667 778 789 39 6 0 0 0 0 167 0 518 678 737 902 1056 1194 1342 1433 1537 1480 1378 1375 1498 1600 1721 1831 1821 1759 1882 2010 2042 2181 2366 2512 2671 2748 2678 2546 2420 2310 2175 2082 2025 1974 1859 1792 1725 1772 1789 1720 1687 1694 1666 1585 1472 1373 1282 1082 958 874 803 758 742 776 796 818 913 1081 1258 1379 1407 1391 1390
0 0 7 0 8 14 17 129 342 225 458 578 811 585 543 502 510 0 6 2 0 11 197 472 403 667 802 836 1019 1205 1268 1419 1484 1444 1383 1438 1533 1680 1816 1851 1766 1770 1951 2045 2140 2304 2486 2620 2653 2616 2540 2405 2299 2226 2151 2046 2021 1892 1802 1739 1725 1711 1685 1667 1660 1770 1800 1669 1459 1222 1031 941 847 747 634 528 445 380 342 427 484 703 830 896 1024 1125 1130
0 6 16 6 0 10 119 130 372 367 726 733 610 445 366 405 420 368 386 404 401 420 518 632 654 497 794 813 923 1074 1204 1397 1475 1446 1423 1510 1624 1769 1845 1835 1749 1740 1795 2015 2177 2335 2448 2527 2522 2462 2362 2261 2253 2204 2098 2031 2001 1895 1860 1842 1754 1704 1662 1618 1667 1798 1766 1557 1262 1076 957 824 646 488 372 303 78 14 114 41 44 68 74 422 661 845 905
0 26 15 7 4 0 0 44 449 588 664 629 523 456 432 452 444 534 620 619 586 573 589 689 738 500 528 761 883 1046 1176 1360 1442 1467 1486 1593 1744 1890 1894 1847 1788 1753 1742 1886 2129 2211 2307 2390 2386 2326 2267 2217 2312 2164 2012 2004 2025 1945 1918 1860 1620 1357 1362 1529 1663 1665 1549 1322 1114 900 698 575 475 369 281 21 0 4 0 28 4 35 46 110 337 360 444
0 4 25 24 0 0 10 8 450 619 597 591 599 480 456 457 468 530 578 627 668 645 588 580 613 469 340 884 1045 1112 1126 1323 1435 1462 1514 1653 1854 1948 1914 1913 1886 1838 1819 1840 1986 2209 2324 2409 2393 2314 2309 2213 2234 2104 1964 1828 1860 1754 1650 1384 1136 1132 1322 1471 1501 1376 1202 962 753 612 470 366 285 160 0 0 3 199 63 116 62 27 81 241 263 300 264
0 0 0 16 0 23 28 248 426 669 692 676 585 628 495 500 502 562 588 660 717 680 565 331 453 426 618 924 1068 1093 1233 1285 1378 1465 1466 1613 1833 1945 1920 1919 1965 1971 1944 1928 1999 2137 2301 2405 2351 2249 2174 2026 2038 1906 1756 1538 1448 1323 1158 1029 1036 1192 1302 1307 1254 1074 859 703 554 400 306 235 203 6 1 0 194 206 189 147 132 143 211 218 306 323 346
0 0 0 0 4 21 56 28 79 371 577 614 604 631 590 441 570 567 658 666 676 689 561 475 531 728 576 647 933 976 1096 1223 1394 1413 1441 1520 1748 1884 1949 1928 1961 2015 2025 2040 2111 2177 2261 2312 2128 2000 1864 1726 1662 1451 1322 1205 1078 1017 1023 1025 1042 1088 1066 973 850 756 615 469 387 322 266 59 29 0 0 0 0 107 96 104 107 144 193 267 265 318 248
0 0 0 0 1 0 228 37 191 162 170 302 571 591 693 564 604 568 700 666 721 638 679 616 635 565 428 504 1024 1078 1089 1068 1213 1403 1440 1496 1548 1690 1844 1880 1909 1956 1994 2033 2071 2136 2195 2149 1968 1758 1640 1518 1393 1273 1062 954 853 820 876 892 952 956 920 853 721 588 481 372 293 141 0 0 0 0 0 4 33 31 70 61 73 80 134 86 144 160 147
0 0 0 0 0 2 278 196 57 62 136 237 712 647 614 359 604 640 679 720 745 672 755 900 923 819 710 1032 1204 1429 1563 1439 1156 1271 1399 1492 1494 1524 1667 1823 1916 1954 1997 2016 2056 2081 2102 2112 1960 1743 1603 1492 1393 1226 1001 830 741 695 708 771 824 831 774 668 538 416 42 0 0 0 0 0 0 0 0 0 7 68 56 46 34 24 14 8 30 64 48
139 152 0 0 252 239 248 171 54 74 220 104 182 629 751 651 578 640 699 793 674 727 731 699 892 1080 1350 1350 1458 1796 1918 1787 1174 1158 1315 1439 1508 1558 1613 1690 1772 1889 1954 1966 1982 2017 2078 2080 1972 1782 1632 1532 1402 1130 881 754 665 630 657 673 637 582 502 223 0 0 0 0 0 0 0 0 0 0 0 14 51 39 24 8 4 4 4 6 4 6 4
232 387 0 0 133 434 436 288 111 216 31 43 56 218 591 827 619 550 691 806 779 750 738 773 850 984 1143 1358 1408 1768 2126 2037 1600 1252 1256 1505 1625 1661 1700 1726 1749 1816 1889 1932 1948 1968 1987 1982 1889 1740 1617 1527 1306 1013 770 666 620 560 552 554 480 372 0 0 0 0 0 0 0 0 0 0 0 0 10 27 22 10 8 6 6 6 7 7 6 13 12
186 335 344 32 52 292 254 386 316 249 213 536 543 637 772 930 771 420 655 720 850 768 725 749 816 880 1032 1211 1303 1406 1750 2005 2073 1560 1372 1622 1732 1828 1869 1870 1853 1850 1876 1917 1942 1960 1959 1903 1788 1693 1554 1429 1169 936 769 689 691 711 662 540 158 0 0 0 0 0 0 0 0 0 0 0 0 0 4 8 12 14 16 14 13 10 7 10 23 22 10
186 236 282 244 124 347 354 240 189 847 495 507 640 818 877 955 880 656 340 638 732 772 744 689 818 888 1003 1084 1173 1268 1431 1694 1901 2156 2122 1757 1774 1953 2039 2027 2003 1946 1927 1895 1904 1941 1934 1957 1955 1743 1468 1362 1157 944 863 821 866 823 770 632 74 0 0 0 0 0 0 0 0 0 0 0 0 0 0 0 3 12 19 20 17 13 13 21 20 19 17
72 125 229 228 206 164 270 358 171 180 460 505 494 547 464 714 866 698 596 537 539 630 701 697 757 774 786 975 987 1160 1197 1396 1544 1563 1740 2080 2112 2044 2179 2240 2158 2112 2063 1996 1968 1962 1920 2085 2158 2034 1868 1625 1335 1071 972 958 958 901 862 668 0 0 0 0 0 0 0 0 0 0 0 0 0 0 0 0 0 1 10 14 9 8 9 16 15 14 13
111 46 88 118 188 265 279 211 308 342 201 551 648 556 384 155 486 592 421 436 477 494 668 713 694 681 662 721 781 920 945 1124 1255 1431 1505 1597 1795 2029 2110 2389 2355 2290 2242 2193 2138 2090 2030 2098 2296 2280 2187 2026 1667 1215 1068 1036 1012 954 943 672 0 0 0 0 0 0 0 0 0 0 0 0 0 0 0 0 0 0 4 13 16 11 13 16 16 10 5
0 0 18 1 61 145 172 196 248 147 112 111 484 474 439 446 524 594 718 713 323 237 376 579 659 622 703 722 652 773 825 848 915 916 1167 1409 1487 1508 1606 2093 2516 2551 2461 2403 2355 2293 2261 2202 2318 2444 2397 2328 2096 1562 1168 1110 1055 1040 1040 687 0 0 0 0 0 0 0 0 0 0 0 0 0 0 0 0 0 0 3 5 3 7 11 17 17 9 6
6 0 0 0 8 36 50 72 112 174 220 219 82 544 436 548 544 558 622 549 634 444 198 161 374 400 622 722 753 723 645 761 876 846 770 820 1301 1424 1392 1551 2371 2682 2679 2634 2558 2537 2504 2476 2466 2513 2523 2496 2393 2036 1545 1192 1126 1163 1130 627 384 0 0 0 0 0 0 0 0 0 0 0 0 0 0 0 0 0 0 0 1 1 2 6 8 16 15
0 0 0 0 0 0 0 0 0 15 54 78 79 46 286 468 520 518 533 494 525 573 695 628 314 154 550 594 625 658 591 578 750 900 890 724 914 1254 1443 1517 1911 2660 2734 2713 2720 2673 2645 2609 2630 2620 2582 2585 2541 2308 1920 1558 1394 1377 1288 742 364 276 270 222 0 0 0 0 0 0 0 0 0 0 0 0 0 0 0 0 0 0 0 0 4 2 5
0 0 0 0 0 0 0 0 0 0 0 44 89 150 147 80 266 322 322 378 448 449 418 654 761 579 436 416 605 604 423 443 227 490 493 569 814 877 1238 1406 1591 2476 2762 2755 2750 2726 2716 2678 2685 2682 2639 2646 2636 2466 2186 1917 1735 1586 1469 840 0 0 0 130 0 0 0 0 0 0 0 0 0 0 0 0 0 0 0 0 0 0 0 0 0 3 8
0 0 0 0 0 0 0 0 0 0 0 0 0 0 0 1 33 95 108 140 58 329 440 462 526 581 532 555 440 288 17 203 408 384 437 699 884 761 824 1087 1412 1825 2565 2744 2756 2702 2685 2668 2726 2746 2754 2751 2700 2570 2378 2163 2027 1916 1733 990 0 0 0 0 0 0 0 0 0 0 0 0 0 0 0 0 0 0 0 0 0 0 0 0 0 0 0
0 0 0 0 0 0 0 0 0 0 0 0 0 0 0 0 0 0 82 96 17 15 77 244 393 508 554 474 378 31 152 127 11 23 173 560 836 840 679 790 969 1228 1523 2292 2647 2684 2619 2639 2671 2705 2750 2758 2714 2628 2475 2326 2256 2170 1938 1146 20 0 0 0 0 0 0 0 0 0 0 0 0 0 0 0 0 0 0 0 0 0 0 0 0 0 0
0 0 0 0 0 0 0 0 0 0 0 0 0 0 0 0 0 0 0 80 86 50 36 29 17 92 299 353 318 294 64 21 32 58 345 590 651 771 631 511 673 866 994 1292 1633 2260 2503 2546 2528 2522 2558 2608 2597 2586 2550 2441 2282 2212 2076 1448 259 0 0 0 0 0 0 0 0 0 0 0 0 0 0 0 0 0 0 0 0 0 0 0 0 0 0
20 0 0 0 0 0 0 0 0 0 0 0 0 0 0 2 8 128 56 2 18 82 75 51 54 79 198 188 361 247 224 258 157 129 249 561 701 720 504 97 393 620 872 1019 1218 1398 1810 2256 2407 2412 2398 2412 2415 2446 2472 2431 2224 2008 2022 1678 726 0 0 0 0 0 0 0 0 0 0 0 0 0 0 0 0 0 0 0 0 0 0 0 0 0 0
44 13 0 0 0 0 0 0 0 0 0 0 0 0 0 0 0 0 0 0 26 40 64 54 68 102 179 209 375 551 561 317 602 692 704 742 819 739 544 517 556 580 760 964 1120 1241 1312 1503 1901 2249 2371 2296 2237 2132 1973 2053 2040 1809 1788 1788 1026 129 65 132 6 0 0 0 0 0 0 0 0 0 0 0 0 0 0 0 0 0 0 0 0 0 0
20 0 20 10 0 0 5 0 0 0 0 0 0 0 0 0 0 0 0 211 0 0 56 136 119 103 145 402 526 493 242 322 35 95 266 685 722 693 500 280 568 610 691 853 1019 1140 1256 1333 1346 1587 1899 1988 1970 1885 1374 1094 1374 1553 1576 1608 1175 322 297 223 0 0 0 0 0 0 0 0 0 0 0 0 0 0 0 0 0 0 0 0 0 0 0
38 36 31 56 17 0 0 0 0 0 0 0 0 0 0 0 0 0 0 0 0 0 430 44 321 581 644 643 638 626 551 484 456 89 31 598 667 329 256 466 499 545 703 852 966 1084 1204 1270 1321 1300 1357 1458 1565 1672 1536 1017 974 1207 1276 1447 1246 477 363 148 0 0 0 0 0 0 0 0 0 0 0 0 0 0 0 0 0 0 0 0 0 0 0
0 0 0 0 0 0 0 0 0 0 0 0 0 0 0 0 0 0 0 0 0 0 19 154 654 761 816 792 765 675 580 470 416 244 50 20 18 1 0 15 0 359 569 649 775 960 1124 1205 1188 1264 1298 1347 1376 1508 1535 1320 1101 966 1080 1270 1242 715 370 9 0 0 0 0 0 0 0 0 0 0 0 0 0 0 0 0 0 0 0 0 0 0 0
0 0 0 0 0 0 0 0 0 0 0 0 0 0 0 0 0 0 0 0 0 0 0 0 5 191 558 771 733 569 352 77 6 2 0 0 0 0 0 0 106 377 474 560 637 759 1006 1111 1201 1214 1239 1299 1359 1443 1503 1294 939 853 955 1161 1168 750 409 2 0 0 0 0 0 0 0 0 0 0 0 0 0 0 0 0 0 0 0 0 0 0 0
0 0 5 1 0 0 0 0 0 0 0 0 0 0 0 0 0 0 0 0 0 0 0 0 0 8 178 492 596 0 0 0 0 0 0 0 0 0 0 0 12 177 238 516 556 591 720 912 1038 1129 1197 1277 1343 1377 1428 1380 993 882 985 1130 1126 785 312 0 0 0 0 0 0 0 0 0 0 0 0 0 0 0 0 0 0 0 0 0 0 0 0
6 9 26 14 5 0 14 16 12 9 0 0 0 0 0 0 0 0 0 0 0 0 0 0 171 332 401 397 166 160 141 0 0 0 0 0 0 0 0 0 0 23 77 420 495 511 514 547 766 902 1081 1243 1322 1330 1341 1146 870 816 959 1072 1119 879 160 0 0 0 0 0 0 0 0 0 0 0 0 0 0 0 0 0 0 0 0 0 0 0 0
17 0 3 23 32 35 45 78 80 74 47 7 2 0 0 0 0 0 0 0 0 0 0 99 667 572 362 257 372 474 398 0 9 32 5 0 0 0 0 0 27 62 100 132 392 486 506 454 523 714 854 917 1064 1190 1272 1246 988 773 930 1006 1098 912 26 0 0 0 0 0 0 0 0 0 0 0 0 0 0 0 0 0 0 0 0 0 0 0 0
123 123 99 26 29 54 47 74 65 109 114 96 53 23 1 0 0 0 4 5 0 0 1 518 616 471 488 538 593 552 386 59 1 0 0 78 117 0 0 0 3 65 176 238 228 293 354 164 125 444 681 829 858 979 1162 1205 1024 724 869 933 997 812 123 0 0 0 0 0 0 0 0 0 0 0 0 0 0 0 0 0 0 0 0 0 0 0 0
37 74 34 38 65 143 144 108 109 107 119 108 93 66 33 1 1 0 1 2 0 0 24 301 456 400 476 606 621 542 404 302 0 0 24 372 356 0 0 0 48 160 281 275 277 238 215 304 344 356 413 638 768 823 964 1063 890 702 828 989 1025 752 158 0 0 0 0 0 0 0 0 0 0 0 0 0 0 0 0 0 0 0 0 0 0 0 0
83 170 159 189 215 221 199 151 6 184 246 231 216 91 11 14 27 266 375 469 483 524 571 600 599 595 614 596 557 527 476 424 456 551 618 531 0 0 0 0 42 125 215 186 258 256 236 236 330 390 414 491 673 738 848 867 808 831 1028 1114 1025 667 114 0 0 0 0 0 0 0 0 0 0 0 0 0 0 0 0 0 0 0 0 0 0 0 0
90 90 141 212 207 197 154 187 301 327 355 369 396 429 432 452 508 595 710 782 775 757 771 817 831 777 714 686 640 575 467 382 429 537 620 471 0 0 1 1 20 70 89 118 207 274 288 253 226 424 416 438 583 738 806 791 817 842 945 956 904 522 303 131 0 0 0 0 0 0 0 0 0 0 0 0 0 0 0 0 0 0 0 0 0 0 0
139 233 198 230 257 254 67 298 459 490 488 481 503 567 644 705 712 730 788 825 861 933 1065 1070 866 750 684 542 487 466 381 522 745 796 719 564 206 22 66 83 48 31 56 67 75 158 189 258 284 400 435 471 525 622 708 682 661 549 663 811 704 552 432 264 150 73 0 0 20 12 0 66 38 0 0 0 0 0 0 0 0 0 0 0 0 0 0
90 193 217 206 240 266 283 384 482 400 439 522 576 688 841 874 854 865 984 1076 1128 1184 1203 1060 933 819 804 814 743 677 752 832 829 705 610 512 399 7 17 16 13 15 54 197 295 236 242 260 353 468 489 506 507 544 564 500 334 360 702 673 652 576 441 339 222 121 56 81 143 92 38 76 29 0 0 0 0 0 0 0 0 0 0 0 0 0 0
136 202 190 175 263 324 346 25 330 395 401 530 733 826 914 987 1101 1062 1066 1096 984 947 959 992 987 996 976 845 752 793 864 856 794 703 542 410 5 12 10 12 36 72 152 229 278 309 290 296 406 508 536 529 550 566 530 338 196 364 544 598 597 464 353 304 235 151 130 146 136 90 69 0 0 0 0 0 0 0 0 0 0 0 0 0 0 0 0
71 124 153 230 361 441 407 356 303 463 519 547 716 827 950 1065 1169 1171 1136 1135 1102 1035 1075 996 1103 1098 1038 892 887 924 967 993 847 724 646 526 43 9 7 29 76 63 221 389 534 478 408 412 413 509 563 579 558 520 522 270 10 431 434 503 413 265 232 210 158 128 122 134 117 0 0 0 0 0 0 0 0 0 0 0 0 0 0 0 0 0 0
74 195 336 391 359 473 435 470 464 529 521 542 580 777 879 878 868 856 852 1006 1259 1288 1247 1262 1144 1122 1299 1249 1180 1082 1029 960 933 900 762 596 259 0 10 65 103 49 321 396 362 434 460 494 501 464 424 497 556 465 152 273 392 403 356 358 224 172 160 154 129 132 170 172 29 0 0 0 0 39 114 0 0 0 0 0 0 0 0 0 0 0 0
54 161 282 328 410 401 449 375 426 430 433 468 569 619 620 535 629 699 781 873 1140 1286 1233 1189 1130 1040 1103 1263 1267 1266 1213 1042 895 817 661 560 360 0 0 91 192 220 392 371 319 404 459 518 514 454 460 529 586 437 344 279 353 299 192 179 169 162 168 185 210 242 265 112 0 0 0 0 0 0 0 0 0 0 0 0 0 0 0 0 0 0 0
84 160 213 232 246 345 295 336 391 384 375 399 488 434 476 542 731 764 823 917 976 1113 1145 1207 1116 867 975 1086 1140 1172 1099 901 728 576 432 402 258 25 85 244 315 293 264 430 389 100 340 424 458 504 513 482 382 388 319 152 175 142 158 152 175 175 192 226 266 302 276 76 0 0 0 0 0 0 0 0 0 0 0 0 0 0 0 0 0 0 0
94 184 208 189 182 189 213 68 260 278 303 327 375 450 601 703 782 845 816 752 747 915 1127 1212 1135 984 818 613 586 652 607 591 423 380 369 326 262 111 338 367 348 381 346 391 160 37 218 401 410 427 445 443 444 470 302 254 238 227 247 242 191 153 195 256 303 324 266 162 153 45 0 0 0 0 0 0 0 0 0 0 0 0 0 0 0 0 0
63 133 192 91 0 58 240 266 262 258 136 235 342 413 506 588 600 561 696 755 828 1075 1127 1113 1126 1050 832 672 583 517 391 289 291 328 91 420 462 594 260 384 410 333 462 387 363 362 389 146 234 142 252 380 315 313 366 379 208 388 387 317 223 204 286 302 278 302 255 212 238 243 0 64 0 0 0 0 0 0 0 0 0 0 0 0 0 0 0
0 4 7 0 0 190 173 307 343 345 251 17 4 222 426 550 474 462 412 712 944 950 721 756 843 898 898 741 623 550 498 426 429 343 471 537 662 648 454 545 358 298 447 450 481 378 328 457 515 491 369 383 429 487 266 325 298 443 416 243 259 208 378 383 375 346 292 275 277 254 135 0 0 0 0 0 0 0 0 0 0 0 0 0 0 0 0
36 2 18 168 116 0 199 291 355 364 314 179 127 343 404 380 280 357 328 512 752 730 634 633 687 711 781 861 884 844 802 748 634 573 496 554 560 627 605 467 544 458 497 399 297 268 266 216 404 247 506 466 486 451 477 359 274 243 234 235 173 271 280 282 274 265 236 306 274 268 246 233 223 18 0 0 0 0 0 0 0 0 0 0 0 0 0
95 50 0 211 268 236 282 344 418 440 469 407 341 418 375 282 370 408 349 334 361 396 502 624 776 762 713 700 761 696 764 808 792 877 883 777 643 482 552 747 698 700 628 488 303 281 418 357 309 285 182 78 163 231 218 115 267 231 147 163 245 202 139 175 229 178 179 199 224 230 233 224 178 0 13 94 95 22 0 0 0 0 0 0 0 0 0
0 0 0 0 38 302 319 455 587 579 545 563 440 288 311 311 415 540 541 379 188 336 419 530 749 785 764 746 734 851 968 1039 1019 978 947 896 804 693 680 684 687 721 700 661 582 408 186 253 297 425 405 264 180 30 48 74 49 113 186 159 244 251 308 375 384 416 374 322 285 293 304 295 259 221 193 168 167 202 176 140 116 125 65 0 0 0 0
1 0 0 0 0 131 318 512 884 889 656 590 539 348 274 404 477 402 386 410 506 603 522 665 741 714 719 749 754 726 711 667 655 591 594 578 647 681 630 542 553 608 430 535 640 619 640 630 551 358 260 259 262 264 300 300 282 287 336 364 295 315 434 490 528 383 293 264 230 292 352 377 387 424 450 420 349 318 289 250 233 211 190 156 123 77 0
Wind_Speed
nan nan nan nan nan nan nan nan nan nan nan nan nan nan nan nan nan nan nan nan nan nan nan nan 5 11 14 18 23 20 19 18 18 18 16 13 11 11 9 7 7 8 8 6 6 5 5 6 7 7 7 7 7 7 8 9 10 12 11 12 11 10 9 10 9 7 6 5 5 6 7 9 7 6 5 6 7 7 7 8 8 8 10 11 11 11 12
nan nan nan nan nan nan nan nan nan nan nan nan nan nan nan nan nan nan nan nan nan nan nan nan nan 17 16 17 22 22 19 19 20 20 17 13 12 12 11 9 7 7 8 8 8 7 6 8 8 8 7 8 8 9 10 10 11 10 11 11 12 11 11 10 8 8 8 7 6 6 6 6 6 6 6 7 8 9 9 9 10 10 11 11 11 12 12
nan nan nan nan nan nan nan nan nan nan nan nan 28 30 29 nan nan nan nan nan nan nan nan nan 20 22 20 22 24 22 19 17 18 18 15 13 11 10 9 9 9 8 8 8 9 9 9 9 9 8 8 8 7 8 9 10 11 11 11 11 12 12 12 10 9 8 7 7 7 7 7 7 7 7 8 8 9 9 8 8 8 8 9 9 9 9 10
nan nan nan nan nan nan nan nan 37 nan nan 30 32 34 32 30 nan nan nan nan nan nan 20 nan 18 21 18 18 19 19 15 12 14 15 13 12 10 9 10 10 10 10 10 9 9 10 10 10 10 9 9 8 9 9 9 10 11 12 12 11 12 11 10 10 10 10 9 8 8 7 8 8 8 8 7 8 8 8 7 7 7 8 8 8 8 8 8
nan nan nan nan nan nan nan 39 37 34 31 32 35 39 41 38 30 nan nan nan nan nan 19 15 15 16 16 14 15 14 12 12 14 15 13 11 11 12 12 12 12 12 11 9 8 7 8 9 11 11 12 12 11 11 11 10 11 12 12 12 12 12 11 11 11 11 11 11 10 10 9 9 8 8 9 9 9 9 9 8 9 10 9 9 9 9 9
nan nan nan nan nan nan 41 40 39 38 36 38 42 42 43 39 38 29 26 21 21 21 19 14 10 12 13 13 11 11 15 15 11 9 11 13 13 13 12 12 13 12 8 6 5 4 5 7 8 10 11 14 14 14 15 15 15 14 13 12 13 14 14 14 14 14 14 13 13 12 11 11 11 12 11 11 nan nan 11 nan nan nan nan 13 13 13 13
nan nan nan nan nan nan nan nan 46 47 48 48 47 47 48 46 44 40 36 31 28 23 19 14 11 14 15 21 23 17 13 14 16 13 11 12 13 14 13 11 12 13 7 3 5 4 4 6 8 9 8 8 13 15 16 18 17 17 16 16 15 15 16 16 17 17 17 16 16 15 13 13 13 14 13 nan nan nan nan nan nan nan nan 16 16 17 17
nan nan nan nan nan nan nan nan 50 48 48 48 45 45 51 52 49 43 37 33 28 26 24 22 17 16 22 29 27 22 19 17 15 15 15 15 15 14 12 12 12 12 8 4 5 4 6 8 8 8 10 10 13 13 14 18 18 19 19 19 18 17 18 18 18 18 19 19 18 17 16 16 16 15 nan nan nan 14 nan 16 nan nan nan 18 19 19 20
nan nan nan nan nan nan nan 52 53 54 49 49 47 46 48 51 51 50 44 40 37 34 30 30 28 26 27 31 29 25 22 20 17 16 15 19 18 17 15 14 12 10 9 7 6 8 10 10 12 11 12 13 14 15 14 15 17 18 20 20 20 19 20 20 20 20 20 20 19 19 18 18 18 nan nan nan 16 16 17 17 18 18 19 20 20 21 22
nan nan nan nan nan nan nan nan nan 51 49 44 43 47 45 49 53 51 48 47 44 41 36 35 32 32 32 28 29 27 24 21 23 21 22 21 20 18 18 16 15 13 11 11 10 11 13 13 13 13 12 13 14 15 15 15 17 17 18 18 19 20 19 19 20 20 20 21 21 20 19 nan nan nan nan nan nan 18 nan 20 20 19 19 20 20 21 22
nan nan nan nan nan nan 60 nan 55 54 49 45 47 50 48 48 54 53 49 48 48 47 43 39 38 38 34 34 30 29 27 22 21 26 23 26 25 23 21 21 20 17 14 13 14 15 15 15 12 12 12 12 13 14 14 15 16 17 17 18 18 19 19 19 19 19 20 20 21 21 nan nan nan nan nan nan nan nan nan nan nan nan 21 nan 20 22 23
nan nan nan nan nan nan 52 54 nan nan 50 46 49 50 49 50 51 52 50 46 46 46 48 44 45 39 36 35 36 30 25 19 18 24 27 27 28 26 23 19 18 17 16 16 15 16 15 12 11 11 11 11 12 12 12 13 14 14 15 16 17 19 20 21 20 20 nan nan nan nan nan nan nan nan nan nan nan nan nan nan nan nan nan nan nan nan nan
36 36 nan nan 42 44 44 49 nan nan 54 54 53 47 49 51 51 49 47 43 41 41 46 49 48 38 32 29 29 29 28 26 23 21 25 28 30 29 25 22 19 17 16 17 18 18 15 13 12 11 12 13 12 12 14 13 13 13 14 15 17 18 19 20 nan nan nan nan nan nan nan nan nan nan nan nan nan nan nan nan nan nan nan nan nan nan nan
36 36 nan nan 39 40 39 45 48 53 nan nan nan 46 45 45 49 49 47 45 43 40 39 40 42 41 38 33 34 39 39 34 27 25 26 28 28 27 26 24 20 16 16 15 15 15 16 18 18 18 18 18 16 16 16 15 14 16 17 18 18 19 nan nan nan nan nan nan nan nan nan nan nan nan nan nan nan nan nan nan nan nan nan nan nan nan nan
35 35 35 nan nan 40 45 44 45 54 57 56 56 53 48 45 47 49 50 49 45 44 39 36 36 41 48 49 48 46 44 41 36 30 29 29 30 29 27 23 19 20 18 16 16 17 17 19 20 21 23 23 21 20 19 17 20 20 21 22 22 nan nan nan nan nan nan nan nan nan nan nan nan nan nan nan nan nan nan nan nan nan nan nan nan nan nan
31 32 34 35 36 34 39 44 44 42 48 50 53 56 53 52 50 49 49 51 49 46 41 39 40 41 46 49 52 51 48 46 43 40 35 32 31 28 23 21 20 20 19 18 18 18 19 19 20 22 24 25 24 24 22 23 24 24 24 25 nan nan nan nan nan nan nan nan nan nan nan nan nan nan nan nan nan nan nan nan nan nan nan nan nan nan nan
nan 28 28 27 30 31 34 38 36 37 41 47 48 52 52 55 57 53 54 54 54 51 47 42 42 44 46 46 48 49 47 46 48 48 42 37 32 29 24 20 20 20 21 22 22 22 21 22 22 23 24 28 28 27 25 27 28 28 29 30 nan nan nan nan nan nan nan nan nan nan nan nan nan nan nan nan nan nan nan nan nan nan nan nan nan nan nan
26 nan nan 28 29 30 32 33 34 35 39 42 48 47 47 46 50 51 51 50 49 49 48 45 44 43 42 45 47 49 48 47 46 49 49 45 38 32 28 26 22 22 25 26 26 25 24 23 24 24 24 27 29 26 29 29 31 32 33 34 nan nan nan nan nan nan nan nan nan nan nan nan nan nan nan nan nan nan nan nan nan nan nan nan nan nan nan
nan nan nan nan nan 30 29 29 31 34 36 40 43 44 42 41 42 42 41 43 44 44 45 44 42 41 43 44 43 44 46 48 48 47 47 46 42 37 31 27 26 26 27 27 26 26 26 25 26 26 26 25 27 31 31 31 31 33 34 35 nan nan nan nan nan nan nan nan nan nan nan nan nan nan nan nan nan nan nan nan nan nan nan nan nan nan nan
nan nan nan nan nan nan nan nan 31 33 34 36 nan 41 43 41 40 38 39 43 45 45 42 40 41 43 44 45 43 43 44 46 48 47 44 43 44 42 36 30 26 28 28 26 25 25 24 25 26 28 28 28 30 32 32 31 31 32 34 34 35 nan nan nan nan nan nan nan nan nan nan nan nan nan nan nan nan nan nan nan nan nan nan nan nan nan nan
nan nan nan nan nan nan nan nan nan nan nan nan nan nan 39 41 40 38 39 45 47 47 43 41 41 42 41 42 43 44 44 48 51 51 48 44 43 43 43 37 31 27 29 26 24 23 23 27 29 29 28 28 32 35 34 31 31 33 33 33 33 34 30 26 nan nan nan nan nan nan nan nan nan nan nan nan nan nan nan nan nan nan nan nan nan nan nan
nan nan nan nan nan nan nan nan nan nan nan nan nan 36 39 nan 40 41 45 46 50 49 46 45 45 43 43 44 46 45 44 45 47 50 48 44 44 44 45 41 37 34 30 26 22 22 25 29 30 31 30 30 33 35 35 32 32 31 31 31 nan nan nan 22 nan nan nan nan nan nan nan nan nan nan nan nan nan nan nan nan nan nan nan nan nan nan nan
nan nan nan nan nan nan nan nan nan nan nan nan nan nan nan nan nan nan 45 45 nan 49 48 48 46 46 47 47 49 48 nan 44 44 44 43 42 44 46 47 46 39 33 30 29 25 23 27 31 31 31 32 33 33 35 36 34 32 30 30 29 nan nan nan nan nan nan nan nan nan nan nan nan nan nan nan nan nan nan nan nan nan nan nan nan nan nan nan
nan nan nan nan nan nan nan nan nan nan nan nan nan nan nan nan nan nan nan nan nan nan nan 46 46 46 49 50 51 nan 46 45 nan nan 44 44 45 47 46 39 34 33 32 31 30 28 29 30 31 33 34 35 36 37 38 36 33 31 30 29 nan nan nan nan nan nan nan nan nan nan nan nan nan nan nan nan nan nan nan nan nan nan nan nan nan nan nan
nan nan nan nan nan nan nan nan nan nan nan nan nan nan nan nan nan nan nan nan nan nan nan nan nan nan 49 49 50 47 nan nan nan nan 44 44 44 43 40 36 34 35 36 34 33 32 31 32 33 34 35 37 39 40 40 39 35 33 32 31 30 nan nan nan nan nan nan nan nan nan nan nan nan nan nan nan nan nan nan nan nan nan nan nan nan nan nan
nan nan nan nan nan nan nan nan nan nan nan nan nan nan nan nan nan 36 nan nan nan nan nan nan nan nan 49 45 46 46 47 43 44 47 47 45 45 45 41 nan 33 36 37 37 34 32 32 34 36 37 36 37 40 42 44 43 39 36 36 36 34 nan nan nan nan nan nan nan nan nan nan nan nan nan nan nan nan nan nan nan nan nan nan nan nan nan nan
nan nan nan nan nan nan nan nan nan nan nan nan nan nan nan nan nan nan nan nan nan nan nan nan nan 39 44 44 43 41 39 41 48 49 46 45 45 42 38 35 34 34 35 36 34 33 32 34 37 38 37 40 47 49 48 48 47 43 40 40 38 35 nan 34 nan nan nan nan nan nan nan nan nan nan nan nan nan nan nan nan nan nan nan nan nan nan nan
nan nan nan nan nan nan nan nan nan nan nan nan nan nan nan nan nan nan nan 34 nan nan nan 32 34 36 37 38 43 42 43 41 nan nan 49 45 44 44 39 34 34 35 36 34 32 32 32 31 34 36 42 54 63 63 55 50 47 46 42 41 39 37 36 36 nan nan nan nan nan nan nan nan nan nan nan nan nan nan nan nan nan nan nan nan nan nan nan
nan nan nan nan nan nan nan nan nan nan nan nan nan nan nan nan nan nan nan nan nan nan 32 nan 32 32 33 34 40 41 43 42 40 nan nan 47 45 41 38 36 35 36 36 34 32 32 31 31 35 42 49 57 63 57 47 43 43 42 40 38 38 37 37 37 nan nan nan nan nan nan nan nan nan nan nan nan nan nan nan nan nan nan nan nan nan nan nan
nan nan nan nan nan nan nan nan nan nan nan nan nan nan nan nan nan nan nan nan nan nan nan 32 32 30 31 32 33 35 37 37 34 36 nan nan nan nan nan nan nan 37 36 34 32 31 31 32 38 44 48 52 53 49 43 42 42 43 39 35 36 37 37 nan nan nan nan nan nan nan nan nan nan nan nan nan nan nan nan nan nan nan nan nan nan nan nan
nan nan nan nan nan nan nan nan nan nan nan nan nan nan nan nan nan nan nan nan nan nan nan nan nan 27 28 28 29 30 31 nan nan nan nan nan nan nan nan nan 36 34 34 32 32 33 33 34 38 41 44 48 48 41 37 39 42 42 41 40 39 41 41 nan nan nan nan nan nan nan nan nan nan nan nan nan nan nan nan nan nan nan nan nan nan nan nan
nan nan nan nan nan nan nan nan nan nan nan nan nan nan nan nan nan nan nan nan nan nan nan nan nan nan 25 28 32 nan nan nan nan nan nan nan nan nan nan nan nan 32 32 32 33 35 36 37 37 40 43 44 41 35 32 35 38 40 41 41 41 43 43 nan nan nan nan nan nan nan nan nan nan nan nan nan nan nan nan nan nan nan nan nan nan nan nan
nan nan nan nan nan nan nan nan nan nan nan nan nan nan nan nan nan nan nan nan nan nan nan nan 25 25 27 29 31 31 30 nan nan nan nan nan nan nan nan nan nan nan nan 32 32 33 35 34 35 39 38 38 36 32 32 34 36 37 39 40 41 43 45 nan nan nan nan nan nan nan nan nan nan nan nan nan nan nan nan nan nan nan nan nan nan nan nan
nan nan nan nan nan nan nan nan nan nan nan nan nan nan nan nan nan nan nan nan nan nan nan nan 26 27 29 29 29 30 30 nan nan nan nan nan nan nan nan nan nan nan 30 30 30 31 33 34 36 37 36 36 35 33 32 35 36 34 37 40 42 44 nan nan nan nan nan nan nan nan nan nan nan nan nan nan nan nan nan nan nan nan nan nan nan nan nan
14 13 nan nan nan nan nan nan nan 13 13 nan nan nan nan nan nan nan nan nan nan nan nan 26 27 28 28 29 29 29 29 nan nan nan nan nan 33 nan nan nan nan nan 28 27 27 28 31 34 36 35 35 36 35 32 32 35 37 36 35 39 42 44 44 nan nan nan nan nan nan nan nan nan nan nan nan nan nan nan nan nan nan nan nan nan nan nan nan
nan nan nan nan nan 11 10 11 12 11 11 11 nan nan nan nan nan nan nan nan nan nan nan 24 25 26 28 28 28 29 29 28 nan nan nan 31 32 nan nan nan nan 30 27 25 24 27 29 31 31 31 33 32 31 30 32 34 37 36 37 39 42 45 46 nan nan nan nan nan nan nan nan nan nan nan nan nan nan nan nan nan nan nan nan nan nan nan nan
nan 12 12 11 9 7 7 10 nan 11 11 11 10 nan nan nan nan 11 14 15 16 17 20 23 25 24 24 26 29 30 29 28 28 28 29 31 nan nan nan nan nan 30 27 23 25 28 26 28 26 24 27 28 27 28 30 35 38 38 40 41 43 44 45 nan nan nan nan nan nan nan nan nan nan nan nan nan nan nan nan nan nan nan nan nan nan nan nan
nan nan 9 9 8 5 6 8 9 9 9 8 8 9 10 11 11 11 12 13 14 16 19 21 21 22 25 28 29 28 27 27 26 25 26 28 nan nan nan nan nan nan nan 23 24 24 23 21 18 20 23 24 25 27 30 34 39 39 40 42 43 43 44 44 nan nan nan nan nan nan nan nan nan nan nan nan nan nan nan nan nan nan nan nan nan nan nan
9 9 9 8 7 6 nan 4 6 8 8 7 9 11 11 11 11 12 12 12 13 17 19 18 20 22 23 24 24 24 25 24 24 23 23 23 25 nan nan nan nan nan nan nan nan 20 18 17 19 20 22 23 25 27 30 33 38 37 36 40 43 44 43 44 43 nan nan nan nan nan nan nan nan nan nan nan nan nan nan nan nan nan nan nan nan nan nan
nan 6 5 4 3 2 2 1 2 3 6 8 9 8 9 12 12 12 12 13 14 15 16 17 18 19 19 19 19 21 21 21 21 20 20 21 22 nan nan nan nan nan nan 18 18 17 14 11 15 21 22 25 29 32 31 33 36 35 34 39 43 45 44 44 43 41 nan nan 38 nan nan nan nan nan nan nan nan nan nan nan nan nan nan nan nan nan nan
8 6 4 3 2 3 3 nan 4 3 4 5 6 6 7 8 10 13 13 13 14 15 15 15 15 15 14 14 14 15 16 17 17 17 19 21 nan nan nan nan nan nan 21 20 18 16 12 14 17 21 26 30 32 34 35 31 31 33 35 39 42 44 45 42 39 38 39 39 37 nan nan nan nan nan nan nan nan nan nan nan nan nan nan nan nan nan nan
nan 5 5 2 3 7 7 7 5 4 4 4 4 5 7 10 11 11 12 12 11 12 12 13 12 12 12 12 13 14 15 16 16 16 18 19 nan nan nan nan nan nan 20 18 15 14 15 16 18 23 28 30 28 30 30 27 nan 33 35 38 40 43 44 40 36 35 36 36 35 nan nan nan nan nan nan nan nan nan nan nan nan nan nan nan nan nan nan
nan 4 3 5 9 9 7 7 6 5 4 3 2 3 6 9 11 12 12 13 12 13 14 15 15 15 15 15 14 15 16 17 17 17 18 19 19 nan nan nan 22 nan 20 18 17 18 18 19 22 28 30 30 26 26 26 28 31 33 33 35 37 41 42 37 33 32 33 32 nan nan nan nan nan nan 32 nan nan nan nan nan nan nan nan nan nan nan nan
nan 6 5 8 11 9 7 7 7 5 3 4 2 2 3 7 8 9 10 11 11 12 13 15 15 15 14 14 14 15 16 16 16 17 18 22 25 nan nan nan 19 19 21 19 18 19 20 22 26 29 30 30 28 27 26 29 32 34 34 34 34 37 37 31 28 28 29 30 nan nan nan nan nan nan nan nan nan nan nan nan nan nan nan nan nan nan nan
nan 8 8 11 11 9 8 8 8 7 5 4 4 4 3 5 5 6 7 8 7 8 10 12 13 15 15 14 14 14 14 14 15 16 20 22 24 nan nan 24 23 21 23 21 20 21 23 24 25 26 27 27 28 26 26 30 30 30 31 31 31 34 34 29 26 26 27 nan nan nan nan nan nan nan nan nan nan nan nan nan nan nan nan nan nan nan nan
nan 13 14 10 9 9 8 nan 9 7 6 5 5 4 4 5 5 5 6 8 7 6 6 8 10 11 13 14 15 15 16 16 16 17 17 19 20 22 23 23 21 22 24 25 22 nan 25 24 24 25 27 31 30 24 25 26 28 29 28 28 30 32 32 29 28 27 27 28 28 nan nan nan nan nan nan nan nan nan nan nan nan nan nan nan nan nan nan
nan 15 12 nan nan nan 9 9 9 7 5 3 6 7 8 7 7 6 7 8 7 6 6 6 7 9 10 12 15 18 19 20 19 19 nan 20 20 21 22 24 26 26 25 23 20 22 23 27 32 32 30 29 26 25 26 28 30 29 25 23 25 29 30 30 29 28 28 28 28 26 nan nan nan nan nan nan nan nan nan nan nan nan nan nan nan nan nan
nan nan nan nan nan 13 11 11 9 6 4 nan nan 4 5 6 6 6 7 8 8 7 7 7 8 9 10 11 12 13 13 14 17 16 19 21 20 20 22 21 23 27 27 27 25 22 23 25 25 26 28 29 26 25 26 28 29 28 28 30 32 31 31 30 30 28 27 27 27 26 26 nan nan nan nan nan nan nan nan nan nan nan nan nan nan nan nan
nan nan nan 16 13 nan 10 10 9 9 10 9 4 3 4 5 5 7 7 7 9 11 12 10 10 10 10 10 12 11 11 11 12 13 15 17 18 19 19 21 24 23 23 24 25 25 26 25 24 24 24 23 22 24 26 27 28 28 27 27 28 29 30 30 29 29 29 30 30 29 29 27 27 nan nan nan nan nan nan nan nan nan nan nan nan nan nan
nan nan nan 9 9 11 11 10 9 9 11 10 8 4 3 2 6 6 6 6 7 12 14 11 13 13 13 14 14 13 13 12 12 12 13 15 16 17 17 19 21 26 25 22 21 21 25 27 25 25 25 nan 23 23 25 28 31 31 28 28 29 29 29 29 27 26 26 28 29 29 29 29 29 nan nan nan nan nan nan nan nan nan nan nan nan nan nan
nan nan nan nan nan 13 13 11 11 9 9 10 9 7 4 3 4 7 8 7 8 10 14 11 13 14 14 14 14 15 16 15 15 16 17 18 18 19 21 21 22 22 22 21 19 18 18 19 20 22 23 25 26 nan nan nan nan 31 34 34 33 32 31 30 30 29 30 31 32 31 30 30 30 29 28 27 26 27 29 32 32 32 nan nan nan nan nan
nan nan nan nan nan 9 8 7 5 6 8 8 8 6 5 6 7 7 8 8 5 11 10 6 11 13 13 13 14 14 13 15 16 16 17 18 18 18 19 21 20 21 20 20 19 18 17 16 19 21 22 22 24 26 26 27 29 31 34 34 34 33 31 32 32 33 33 34 35 35 35 35 34 32 31 30 30 30 31 32 31 31 30 30 32 nan nan
Wind_Direction
nan nan nan nan nan nan nan nan nan nan nan nan nan nan nan nan nan nan nan nan nan nan nan nan 337 302 307 318 323 327 330 328 323 320 323 328 332 330 331 331 325 326 337 345 343 342 343 345 355 357 357 360 359 2 2 2 2 3 358 357 357 358 1 8 7 358 346 331 306 291 282 272 277 285 284 276 278 281 285 286 282 287 286 286 284 287 285
nan nan nan nan nan nan nan nan nan nan nan nan nan nan nan nan nan nan nan nan nan nan nan nan nan 263 274 288 295 301 314 331 332 328 327 334 338 341 342 337 328 320 320 326 331 327 332 343 348 352 356 360 1 358 2 2 2 3 354 356 354 357 5 12 7 4 0 355 333 303 301 300 293 285 283 282 277 280 285 283 279 282 288 291 292 286 283
nan nan nan nan nan nan nan nan nan nan nan nan 240 243 246 nan nan nan nan nan nan nan nan nan 264 271 274 283 299 315 322 327 337 334 329 329 334 336 337 333 327 315 309 312 313 320 330 339 343 345 346 347 347 348 349 349 350 349 347 346 351 353 359 356 354 353 356 355 346 343 335 314 306 302 295 281 276 279 277 276 280 283 291 292 291 290 286
nan nan nan nan nan nan nan nan 221 nan nan 238 240 240 238 242 nan nan nan nan nan nan 245 nan 263 276 280 295 303 308 311 323 332 336 329 328 333 335 341 340 332 324 313 305 311 318 324 329 330 331 332 329 330 337 332 333 331 328 329 331 337 343 340 330 330 332 332 329 327 324 323 322 319 310 303 296 289 285 279 269 267 272 279 286 285 279 286
nan nan nan nan nan nan nan 228 224 225 230 240 237 239 237 239 239 nan nan nan nan nan 238 236 253 263 283 288 298 304 303 317 332 336 334 334 333 339 338 339 343 336 321 304 302 301 307 318 322 326 322 320 329 322 317 309 303 309 314 317 315 315 314 314 314 313 313 310 307 308 310 310 307 302 298 291 289 286 284 280 283 281 275 281 282 282 283
nan nan nan nan nan nan 238 237 235 237 238 238 239 237 234 231 237 240 244 237 225 224 222 232 246 266 257 256 260 275 308 314 325 329 335 339 335 331 336 340 343 340 311 269 264 287 302 308 312 309 319 326 322 314 308 304 303 300 299 299 299 302 305 308 307 305 303 299 298 295 290 286 285 285 285 288 nan nan 282 nan nan nan nan 276 276 277 278
nan nan nan nan nan nan nan nan 234 236 240 239 243 242 236 231 228 225 222 219 219 221 223 226 239 256 241 251 268 271 275 297 312 320 322 329 329 328 331 335 342 348 350 263 245 243 257 283 280 286 297 296 297 297 302 301 300 299 296 292 290 295 298 299 299 300 299 299 297 294 289 288 286 286 288 nan nan nan nan nan nan nan nan 276 276 277 277
nan nan nan nan nan nan nan nan 234 234 237 238 238 235 232 230 229 228 224 216 214 216 218 227 248 258 256 254 255 265 275 289 297 300 312 316 312 319 326 336 342 344 350 332 309 305 265 271 277 293 301 294 297 299 300 301 300 299 298 296 295 295 295 299 301 303 304 302 301 301 299 296 294 292 nan nan nan 285 nan 281 nan nan nan 283 282 282 282
nan nan nan nan nan nan nan 229 229 229 231 229 236 238 233 231 228 227 225 219 215 215 220 225 237 250 251 252 249 245 262 274 279 291 294 304 310 310 313 321 326 323 319 315 302 282 289 293 296 301 300 305 302 299 299 297 296 296 296 298 301 302 301 303 304 305 305 303 301 300 297 297 297 nan nan nan 288 288 281 281 281 282 285 285 285 286 286
nan nan nan nan nan nan nan nan nan 225 228 227 236 239 236 232 226 226 226 224 220 219 221 225 232 242 246 248 242 235 236 258 274 277 286 290 294 299 302 304 310 310 300 288 292 309 314 313 309 298 305 309 309 308 305 300 296 294 294 296 296 297 299 301 301 301 300 299 298 295 295 nan nan nan nan nan nan 294 nan 293 289 289 288 285 282 281 282
nan nan nan nan nan nan 242 nan 223 220 223 225 235 236 234 232 226 225 226 224 222 225 225 225 234 242 240 234 234 234 229 231 263 280 282 289 294 300 307 314 318 319 315 307 303 308 317 318 310 305 310 313 312 314 311 309 304 300 295 292 292 293 293 291 291 291 291 291 293 294 nan nan nan nan nan nan nan nan nan nan nan nan 290 nan 284 280 279
nan nan nan nan nan nan 235 229 nan nan 224 228 233 233 234 228 224 224 225 225 224 224 226 228 231 235 239 234 234 226 217 231 256 273 283 283 288 294 301 306 311 309 300 292 297 313 326 331 315 315 317 318 316 309 309 306 309 307 303 299 292 284 284 284 283 282 nan nan nan nan nan nan nan nan nan nan nan nan nan nan nan nan nan nan nan nan nan
248 251 nan nan 244 243 232 223 nan nan 236 236 230 230 230 227 224 223 224 224 224 225 230 230 232 228 238 244 240 226 220 228 254 255 269 281 286 289 295 301 296 297 305 311 317 325 327 319 316 316 315 314 312 302 295 298 308 308 300 291 287 283 279 279 nan nan nan nan nan nan nan nan nan nan nan nan nan nan nan nan nan nan nan nan nan nan nan
246 249 nan nan 245 244 238 217 222 231 nan nan nan 235 232 228 224 221 223 224 224 225 230 236 238 231 229 234 235 230 229 231 237 252 257 268 273 277 282 289 294 294 296 300 304 305 304 307 308 308 308 309 305 301 295 300 292 280 288 294 292 290 nan nan nan nan nan nan nan nan nan nan nan nan nan nan nan nan nan nan nan nan nan nan nan nan nan
249 246 245 nan nan 240 234 217 227 228 236 240 241 240 237 235 225 223 222 227 226 230 229 235 238 234 230 229 230 233 234 234 231 237 253 263 272 276 276 282 291 295 295 301 309 310 301 303 303 305 307 305 302 298 301 296 283 286 288 294 299 nan nan nan nan nan nan nan nan nan nan nan nan nan nan nan nan nan nan nan nan nan nan nan nan nan nan
249 243 243 243 240 233 229 231 233 228 234 236 238 240 238 239 236 227 225 227 229 231 236 235 234 234 232 229 230 229 229 232 238 240 239 243 250 255 264 278 286 292 294 292 293 293 294 298 300 301 303 300 297 297 301 290 289 287 291 296 nan nan nan nan nan nan nan nan nan nan nan nan nan nan nan nan nan nan nan nan nan nan nan nan nan nan nan
nan 243 244 236 236 234 229 233 232 232 231 232 234 236 237 237 236 233 229 228 229 231 232 234 235 231 231 233 231 225 221 228 238 242 241 237 234 239 247 258 269 276 284 289 288 289 289 293 292 295 297 298 298 300 298 294 295 298 300 302 nan nan nan nan nan nan nan nan nan nan nan nan nan nan nan nan nan nan nan nan nan nan nan nan nan nan nan
238 nan nan 235 228 229 223 226 231 229 230 231 235 237 235 235 230 229 231 230 226 224 226 228 229 229 227 230 231 224 220 224 232 237 237 234 231 229 232 238 251 265 270 275 284 290 287 286 285 287 290 294 300 299 295 297 300 305 306 307 nan nan nan nan nan nan nan nan nan nan nan nan nan nan nan nan nan nan nan nan nan nan nan nan nan nan nan
nan nan nan nan nan 224 229 228 227 231 232 234 236 239 240 231 225 225 231 232 231 227 221 220 222 222 225 226 229 230 226 226 227 227 229 232 231 227 223 229 243 255 267 276 286 291 291 287 285 286 291 293 294 292 297 298 301 306 305 306 nan nan nan nan nan nan nan nan nan nan nan nan nan nan nan nan nan nan nan nan nan nan nan nan nan nan nan
nan nan nan nan nan nan nan nan 232 236 237 235 nan 236 238 237 235 236 238 239 236 238 230 223 220 217 221 225 223 223 229 232 227 222 222 225 229 231 228 224 235 251 261 271 280 286 288 287 288 290 292 296 294 293 291 295 301 303 304 305 306 nan nan nan nan nan nan nan nan nan nan nan nan nan nan nan nan nan nan nan nan nan nan nan nan nan nan
nan nan nan nan nan nan nan nan nan nan nan nan nan nan 239 238 235 238 244 247 245 243 240 238 236 230 223 225 226 222 221 228 228 220 215 220 229 235 233 228 229 243 258 266 271 279 283 284 286 286 288 288 288 292 292 296 302 304 304 306 305 307 304 295 nan nan nan nan nan nan nan nan nan nan nan nan nan nan nan nan nan nan nan nan nan nan nan
nan nan nan nan nan nan nan nan nan nan nan nan nan 233 234 nan 236 235 234 236 243 246 245 241 239 239 238 232 227 221 224 226 223 221 217 212 217 227 236 233 228 230 238 247 260 271 271 273 280 283 285 286 288 287 291 295 300 302 304 303 nan nan nan 296 nan nan nan nan nan nan nan nan nan nan nan nan nan nan nan nan nan nan nan nan nan nan nan
nan nan nan nan nan nan nan nan nan nan nan nan nan nan nan nan nan nan 237 235 nan 238 240 243 243 242 240 237 231 225 nan 226 225 225 228 224 224 225 225 223 225 232 234 234 239 252 260 267 274 278 278 280 284 286 290 292 297 298 300 298 nan nan nan nan nan nan nan nan nan nan nan nan nan nan nan nan nan nan nan nan nan nan nan nan nan nan nan
nan nan nan nan nan nan nan nan nan nan nan nan nan nan nan nan nan nan nan nan nan nan nan 239 244 245 244 240 236 nan 225 224 nan nan 235 241 238 230 223 222 227 234 236 239 245 250 254 262 270 272 275 277 282 282 284 287 292 292 293 292 nan nan nan nan nan nan nan nan nan nan nan nan nan nan nan nan nan nan nan nan nan nan nan nan nan nan nan
nan nan nan nan nan nan nan nan nan nan nan nan nan nan nan nan nan nan nan nan nan nan nan nan nan nan 243 242 244 241 nan nan nan nan 234 240 238 231 225 225 230 235 239 248 254 254 254 261 264 265 269 274 278 280 282 282 285 284 282 280 279 nan nan nan nan nan nan nan nan nan nan nan nan nan nan nan nan nan nan nan nan nan nan nan nan nan nan
nan nan nan nan nan nan nan nan nan nan nan nan nan nan nan nan nan 239 nan nan nan nan nan nan nan nan 247 242 241 245 246 239 233 234 235 237 237 233 227 nan 233 240 242 247 252 255 256 260 263 264 266 270 274 276 275 274 272 271 271 270 273 nan nan nan nan nan nan nan nan nan nan nan nan nan nan nan nan nan nan nan nan nan nan nan nan nan nan
nan nan nan nan nan nan nan nan nan nan nan nan nan nan nan nan nan nan nan nan nan nan nan nan nan 242 243 246 248 250 249 240 237 237 238 238 240 239 235 233 237 245 250 251 252 254 255 258 261 262 262 260 257 254 255 260 260 258 259 260 263 273 nan 277 nan nan nan nan nan nan nan nan nan nan nan nan nan nan nan nan nan nan nan nan nan nan nan
nan nan nan nan nan nan nan nan nan nan nan nan nan nan nan nan nan nan nan 240 nan nan nan 245 245 245 243 241 245 246 248 248 nan nan 239 239 239 238 237 239 243 247 252 252 249 250 251 252 255 256 253 253 253 249 247 246 246 251 255 260 266 270 275 277 nan nan nan nan nan nan nan nan nan nan nan nan nan nan nan nan nan nan nan nan nan nan nan
nan nan nan nan nan nan nan nan nan nan nan nan nan nan nan nan nan nan nan nan nan nan 246 nan 248 249 248 244 248 249 244 242 242 nan nan 234 235 235 237 242 244 246 249 248 245 243 245 247 250 250 250 257 258 259 261 263 259 254 252 258 265 272 277 281 nan nan nan nan nan nan nan nan nan nan nan nan nan nan nan nan nan nan nan nan nan nan nan
nan nan nan nan nan nan nan nan nan nan nan nan nan nan nan nan nan nan nan nan nan nan nan 241 241 244 249 246 247 249 244 243 243 237 nan nan nan nan nan nan nan 241 244 245 247 249 251 254 257 260 262 265 268 269 271 274 274 273 270 268 273 278 280 nan nan nan nan nan nan nan nan nan nan nan nan nan nan nan nan nan nan nan nan nan nan nan nan
nan nan nan nan nan nan nan nan nan nan nan nan nan nan nan nan nan nan nan nan nan nan nan nan nan 238 240 242 242 242 239 nan nan nan nan nan nan nan nan nan 241 241 245 248 251 254 253 254 258 262 264 268 272 274 274 274 275 276 274 273 274 283 285 nan nan nan nan nan nan nan nan nan nan nan nan nan nan nan nan nan nan nan nan nan nan nan nan
nan nan nan nan nan nan nan nan nan nan nan nan nan nan nan nan nan nan nan nan nan nan nan nan nan nan 237 236 235 nan nan nan nan nan nan nan nan nan nan nan nan 244 246 246 248 252 255 257 259 260 264 270 276 280 278 272 269 269 270 269 270 272 278 nan nan nan nan nan nan nan nan nan nan nan nan nan nan nan nan nan nan nan nan nan nan nan nan
nan nan nan nan nan nan nan nan nan nan nan nan nan nan nan nan nan nan nan nan nan nan nan nan 234 236 237 234 232 232 230 nan nan nan nan nan nan nan nan nan nan nan nan 243 245 250 255 257 257 258 264 270 276 278 277 275 273 273 272 269 264 264 268 nan nan nan nan nan nan nan nan nan nan nan nan nan nan nan nan nan nan nan nan nan nan nan nan
nan nan nan nan nan nan nan nan nan nan nan nan nan nan nan nan nan nan nan nan nan nan nan nan 232 235 236 235 232 229 227 nan nan nan nan nan nan nan nan nan nan nan 234 236 240 245 250 253 256 259 262 267 272 274 276 276 274 273 274 271 265 262 nan nan nan nan nan nan nan nan nan nan nan nan nan nan nan nan nan nan nan nan nan nan nan nan nan
310 310 nan nan nan nan nan nan nan 248 236 nan nan nan nan nan nan nan nan nan nan nan nan 231 234 236 236 235 233 229 228 nan nan nan nan nan 223 nan nan nan nan nan 228 234 241 243 249 254 258 260 262 265 270 273 275 276 273 270 271 269 263 259 262 nan nan nan nan nan nan nan nan nan nan nan nan nan nan nan nan nan nan nan nan nan nan nan nan
nan nan nan nan nan 278 268 263 261 254 242 233 nan nan nan nan nan nan nan nan nan nan nan 234 235 236 236 235 232 230 228 227 nan nan nan 225 223 nan nan nan nan 222 227 230 242 245 246 251 259 265 262 264 269 273 275 273 271 269 268 264 259 257 259 nan nan nan nan nan nan nan nan nan nan nan nan nan nan nan nan nan nan nan nan nan nan nan nan
nan 327 319 307 295 283 278 275 nan 263 255 243 232 nan nan nan nan 226 226 225 226 230 234 237 237 238 237 235 235 233 233 231 229 229 228 226 nan nan nan nan nan 224 230 231 237 247 248 251 254 277 270 267 269 271 272 277 267 265 263 261 258 257 257 nan nan nan nan nan nan nan nan nan nan nan nan nan nan nan nan nan nan nan nan nan nan nan nan
nan nan 320 300 286 283 298 296 280 268 258 243 232 224 217 213 213 215 217 220 221 224 230 237 239 238 236 235 236 236 233 234 234 234 232 228 nan nan nan nan nan nan nan 238 241 249 251 253 259 269 271 269 268 267 271 281 274 267 263 260 257 256 255 255 nan nan nan nan nan nan nan nan nan nan nan nan nan nan nan nan nan nan nan nan nan nan nan
335 328 319 307 295 295 nan 289 273 265 261 241 225 221 219 213 204 208 212 217 219 225 229 229 233 236 237 235 233 234 234 235 237 238 237 234 232 nan nan nan nan nan nan nan nan 246 247 251 264 269 271 269 268 264 266 276 276 265 260 256 254 252 253 253 256 nan nan nan nan nan nan nan nan nan nan nan nan nan nan nan nan nan nan nan nan nan nan
nan 342 345 322 291 279 273 211 205 231 240 242 235 222 219 214 208 206 210 213 216 226 229 230 232 233 235 237 236 236 234 236 238 239 238 235 230 nan nan nan nan nan nan 235 240 244 247 260 267 267 267 266 265 262 263 267 263 254 251 252 250 249 250 252 254 258 nan nan 257 nan nan nan nan nan nan nan nan nan nan nan nan nan nan nan nan nan nan
21 23 26 3 55 72 63 nan 119 159 200 205 220 217 219 227 220 220 216 214 207 211 218 224 225 225 228 231 231 230 229 229 233 236 235 233 nan nan nan nan nan nan 230 237 245 245 247 252 260 263 263 262 262 266 267 277 261 248 250 255 253 249 248 251 253 256 256 256 254 nan nan nan nan nan nan nan nan nan nan nan nan nan nan nan nan nan nan
nan 42 56 97 131 90 76 78 94 134 155 185 201 204 207 222 230 228 223 223 218 218 226 223 216 213 218 220 221 221 219 220 225 228 230 228 nan nan nan nan nan nan 220 221 232 240 243 246 254 261 264 265 268 285 287 274 nan 249 252 260 260 252 247 248 253 256 255 253 251 nan nan nan nan nan nan nan nan nan nan nan nan nan nan nan nan nan nan
nan 97 90 114 86 77 76 84 92 93 112 140 184 201 211 223 229 233 234 229 225 221 215 211 208 201 203 208 212 213 211 214 217 217 218 217 218 nan nan nan 218 nan 207 221 236 239 244 247 255 259 268 271 272 284 287 266 258 251 249 256 259 252 245 246 253 256 253 250 nan nan nan nan nan nan 262 nan nan nan nan nan nan nan nan nan nan nan nan
nan 70 118 104 83 75 80 88 92 98 105 121 153 182 226 250 254 249 242 234 224 218 213 203 198 195 200 207 211 209 208 211 210 211 214 207 208 nan nan nan 222 216 209 225 236 241 243 250 255 266 281 283 283 285 269 262 261 256 254 255 253 245 240 244 254 255 250 247 nan nan nan nan nan nan nan nan nan nan nan nan nan nan nan nan nan nan nan
nan 63 82 76 77 74 76 77 75 72 74 95 136 142 193 216 226 232 227 221 207 203 208 202 198 197 201 205 210 209 211 211 210 208 206 206 206 nan nan 212 213 219 217 219 238 245 250 248 259 277 276 277 275 280 260 253 256 260 262 259 247 237 237 248 260 258 250 nan nan nan nan nan nan nan nan nan nan nan nan nan nan nan nan nan nan nan nan
nan 68 67 75 88 82 78 nan 74 72 87 107 112 123 162 155 147 169 192 188 175 176 196 199 199 200 205 209 215 217 219 213 208 207 207 207 207 203 205 206 217 224 222 226 244 nan 243 250 257 267 274 268 269 267 253 246 243 247 255 251 239 235 241 252 260 255 247 244 244 nan nan nan nan nan nan nan nan nan nan nan nan nan nan nan nan nan nan
nan 64 77 nan nan nan 75 74 69 66 78 135 182 171 156 158 149 156 180 184 172 162 183 207 211 208 215 217 219 221 218 212 211 217 nan 210 207 207 209 210 220 226 231 238 247 247 250 258 263 268 271 277 276 254 246 242 240 236 233 229 233 240 245 253 255 250 245 243 247 250 nan nan nan nan nan nan nan nan nan nan nan nan nan nan nan nan nan
nan nan nan nan nan 80 87 72 64 71 96 nan nan 164 179 177 175 172 192 198 184 169 177 204 213 210 217 225 227 228 226 228 218 212 218 213 214 217 220 222 231 229 231 236 236 247 260 262 261 262 268 266 256 251 249 242 237 235 234 228 220 226 239 246 248 248 245 243 246 249 252 nan nan nan nan nan nan nan nan nan nan nan nan nan nan nan nan
nan nan nan 64 70 nan 79 76 72 68 73 75 83 152 187 196 205 197 193 211 202 188 180 185 206 206 208 214 221 221 220 222 228 218 212 214 217 221 225 228 238 241 238 242 244 241 243 244 253 261 262 257 255 256 255 248 239 236 238 242 242 239 238 236 232 228 231 235 237 241 245 248 254 nan nan nan nan nan nan nan nan nan nan nan nan nan nan
nan nan nan 72 82 79 73 71 72 70 69 67 72 78 94 179 214 180 162 190 198 189 165 163 206 204 205 211 214 215 214 214 211 208 212 219 223 226 227 229 233 239 244 245 243 245 253 251 242 236 232 nan 238 247 252 248 241 237 236 237 240 243 246 241 234 237 239 239 242 247 251 254 257 nan nan nan nan nan nan nan nan nan nan nan nan nan nan
nan nan nan nan nan 68 58 49 60 74 78 78 78 82 98 154 148 131 139 170 179 164 130 160 197 197 201 207 212 213 216 219 217 218 221 222 221 227 231 231 230 234 239 243 244 242 240 245 248 243 237 237 238 nan nan nan nan 246 241 242 247 253 257 259 256 254 250 248 248 251 255 258 261 265 267 270 271 272 271 274 277 281 nan nan nan nan nan
nan nan nan nan nan 57 68 65 68 63 66 65 67 78 86 96 105 131 145 175 148 86 91 175 190 186 195 204 210 210 213 219 220 220 222 226 228 231 230 232 234 234 234 238 242 244 243 243 247 246 239 235 241 248 249 250 250 250 250 251 255 258 260 262 263 264 263 259 256 255 256 259 263 268 271 272 272 273 275 277 276 274 275 276 273 nan nan